| time (UTC) | temp F | wind direction | speed MPH | gust MPH | rain 1hr in | rain 24hr in | rain mn in | humidity % | barometer mb |
| 20260506110322 | 60 | 19 | 0.0 | 1.0 | 0.00 | 0.47 | 0.04 | 92 | 457.3 |
| 20260506104820 | 60 | 19 | 0.0 | 0.0 | 0.00 | 0.55 | 0.04 | 92 | 457.3 |
| 20260506103319 | 60 | 19 | 0.0 | 0.0 | 0.00 | 0.55 | 0.04 | 92 | 457.3 |
| 20260506101815 | 61 | 140 | 0.0 | 2.0 | 0.00 | 0.55 | 0.04 | 92 | 457.3 |
| 20260506100313 | 61 | 140 | 0.0 | 2.0 | 0.00 | 0.55 | 0.04 | 92 | 457.3 |
| 20260506094815 | 61 | 140 | 0.0 | 2.0 | 0.00 | 0.63 | 0.04 | 92 | 457.3 |
| 20260506093330 | 62 | 331 | 0.0 | 0.0 | 0.00 | 0.63 | 0.04 | 91 | 457.3 |
| 20260506091829 | 62 | 331 | 0.0 | 0.0 | 0.00 | 0.63 | 0.04 | 91 | 457.3 |
| 20260506090327 | 62 | 331 | 0.0 | 0.0 | 0.00 | 0.63 | 0.04 | 91 | 457.3 |
| 20260506084824 | 62 | 331 | 0.0 | 0.0 | 0.00 | 0.79 | 0.04 | 91 | 457.3 |
| 20260506083328 | 62 | 331 | 0.0 | 0.0 | 0.00 | 0.79 | 0.04 | 91 | 457.3 |
| 20260506081826 | 62 | 331 | 0.0 | 0.0 | 0.00 | 0.79 | 0.04 | 91 | 457.3 |
| 20260506080342 | 62 | 94 | 0.0 | 0.0 | 0.00 | 0.79 | 0.04 | 91 | 457.3 |
| 20260506073320 | 63 | 94 | 0.0 | 0.0 | 0.00 | 1.06 | 0.04 | 89 | 457.3 |
| 20260506071820 | 64 | 94 | 0.0 | 0.0 | 0.00 | 1.06 | 0.04 | 89 | 457.3 |
| 20260506070340 | 64 | 94 | 0.0 | 0.0 | 0.00 | 1.06 | 0.04 | 88 | 457.3 |
| 20260506061817 | 66 | 94 | 0.0 | 0.0 | 0.00 | 1.14 | 0.04 | 87 | 457.3 |
| 20260506060318 | 66 | 94 | 0.0 | 0.0 | 0.00 | 1.14 | 0.04 | 86 | 457.3 |
| 20260506050329 | 68 | 94 | 0.0 | 2.0 | 0.00 | 1.73 | 0.04 | 77 | 457.3 |
| 20260506044827 | 69 | 94 | 0.0 | 2.0 | 0.00 | 1.77 | 0.04 | 81 | 457.3 |
| 20260506043347 | 69 | 94 | 0.0 | 2.0 | 0.00 | 1.77 | 0.04 | 80 | 457.3 |
| 20260506041844 | 68 | 94 | 0.0 | 2.0 | 0.00 | 1.77 | 0.04 | 78 | 457.3 |
| 20260506040325 | 68 | 94 | 0.0 | 0.0 | 0.00 | 1.77 | 0.04 | 78 | 457.3 |
| 20260506034818 | 68 | 94 | 1.0 | 1.0 | 0.00 | 1.77 | 0.04 | 77 | 457.3 |
| 20260506033314 | 68 | 94 | 0.0 | 0.0 | 0.00 | 1.77 | 0.04 | 77 | 457.3 |
| 20260506031814 | 68 | 94 | 0.0 | 0.0 | 0.00 | 1.77 | 0.04 | 78 | 457.3 |
| 20260506030312 | 68 | 94 | 0.0 | 2.0 | 0.00 | 1.77 | 0.04 | 79 | 457.3 |
| 20260506024830 | 68 | 94 | 0.0 | 2.0 | 0.00 | 1.77 | 0.04 | 81 | 457.3 |
| 20260506023311 | 68 | 55 | 0.0 | 1.0 | 0.00 | 1.77 | 0.04 | 82 | 457.3 |
| 20260506021830 | 67 | 128 | 0.0 | 2.0 | 0.00 | 1.77 | 0.04 | 85 | 457.3 |
| 20260506020310 | 66 | 128 | 0.0 | 2.0 | 0.00 | 1.77 | 0.04 | 85 | 457.3 |
| 20260506014829 | 65 | 128 | 0.0 | 2.0 | 0.00 | 1.77 | 0.04 | 86 | 457.3 |
| 20260506013327 | 65 | 128 | 0.0 | 0.0 | 0.00 | 1.77 | 0.04 | 87 | 457.3 |
| 20260506011829 | 65 | 155 | 0.0 | 1.0 | 0.00 | 1.77 | 0.04 | 89 | 457.3 |
| 20260506010325 | 64 | 173 | 0.0 | 2.0 | 0.00 | 1.77 | 0.04 | 90 | 457.3 |
| 20260506004823 | 64 | 152 | 1.0 | 2.0 | 0.00 | 1.77 | 0.04 | 92 | 457.3 |
| 20260506003325 | 64 | 147 | 0.0 | 2.0 | 0.04 | 1.77 | 0.04 | 93 | 457.3 |
| 20260506001844 | 63 | 136 | 0.0 | 2.0 | 0.04 | 1.77 | 0.04 | 93 | 457.3 |
| 20260506000324 | 62 | 164 | 2.0 | 3.0 | 0.04 | 1.77 | 0.04 | 93 | 457.3 |
| 20260505234822 | 63 | 165 | 0.0 | 1.0 | 0.04 | 1.77 | 0.04 | 94 | 457.3 |
| 20260505233320 | 61 | 345 | 0.0 | 0.0 | 0.00 | 1.73 | 0.03 | 93 | 457.3 |
| 20260505231819 | 61 | 345 | 0.0 | 0.0 | 0.00 | 1.73 | 0.03 | 93 | 457.3 |
| 20260505230317 | 61 | 345 | 0.0 | 0.0 | 0.00 | 1.73 | 0.03 | 94 | 457.3 |
| 20260505224817 | 61 | 67 | 0.0 | 0.0 | 0.00 | 1.73 | 0.03 | 94 | 457.3 |
| 20260505161811 | 60 | 140 | 0.0 | 0.0 | 0.00 | 1.57 | 0.00 | 93 | 457.3 |
| 20260505160328 | 61 | 140 | 0.0 | 0.0 | 0.00 | 1.57 | 0.00 | 93 | 457.3 |
| 20260505153323 | 61 | 140 | 0.0 | 0.0 | 0.00 | 1.57 | 0.00 | 93 | 457.3 |
| 20260505151818 | 62 | 139 | 0.0 | 2.0 | 0.00 | 1.57 | 0.00 | 93 | 457.3 |
| 20260505150316 | 62 | 139 | 0.0 | 2.0 | 0.00 | 1.57 | 0.00 | 93 | 457.3 |
| 20260505140329 | 63 | 161 | 0.0 | 0.0 | 0.00 | 1.57 | 0.00 | 93 | 457.3 |
| 20260505124822 | 63 | 227 | 0.0 | 0.0 | 0.12 | 1.57 | 0.31 | 93 | |
| 20260505123319 | 63 | 227 | 0.0 | 0.0 | 0.16 | 1.54 | 0.31 | 93 | |
| 20260505121841 | 63 | 227 | 0.0 | 0.0 | 0.20 | 1.54 | 0.31 | 93 | |
| 20260505120318 | 63 | 227 | 0.0 | 0.0 | 0.16 | 1.50 | 0.30 | 92 | |
| 20260505114815 | 63 | 227 | 0.0 | 0.0 | 0.16 | 1.46 | 0.29 | 92 | |
| 20260505113316 | 64 | 227 | 0.0 | 0.0 | 0.12 | 1.38 | 0.28 | 92 |